Terug naar catalogus

COSMOS 2251 DEB

ActiefLEO
NORAD 34547·DEBRIS·🇷🇺 Russia

Gelanceerd Jun 16, 1993 vanaf Plesetsk Cosmodrome

Loading…

Volgende Passages (komende 24 uur)

TLE

VersSource: Space-Track

Epoch: Sep 13, 2026, 02:06 UTC

1 34547U 93036UH  26256.08790846  .00004994  00000-0  70705-3 0  9995
2 34547  74.0273 284.2189 0021363 294.5186  65.3761 14.77185553925675

Volg COSMOS 2251 DEB in realtime met AllMySat

Download on the App Store